Crescent City, CA

7:11 PM PDT on April 26, 2018 (GMT -0700)
McNamara

Weather History for KCEC - December, 2012

Change the Weather History Date:

Monday, December 31, 2012

  Actual Average Record
Temperature  
Mean Temperature 43 °F 48 °F  
Max Temperature 50 °F 55 °F 65 °F (1963)
Min Temperature 35 °F 41 °F 27 °F (1990)
Degree Days  
Heating Degree Days 22 17  
Month to date heating degree days 559 539  
Since 1 July heating degree days 2058 2156  
Cooling Degree Days 0 0  
Month to date cooling degree days 0 0  
Year to date cooling degree days 0 0  
Moisture  
Dew Point 33 °F    
Average Humidity 68    
Maximum Humidity 86    
Minimum Humidity 50    
Precipitation  
Precipitation T in 0.37 in 3.19 in (1995)
Month to date precipitation 14.09 11.27  
Year to date precipitation 77.08 64.03  
Since 1 July precipitation 33.70  
Snow  
Snow 0.00 in - - ()
Month to date snowfall 0.0  
Since 1 July snowfall 0.0  
Snow Depth 0.00 in    
Sea Level Pressure  
Sea Level Pressure 30.28 in    
Wind  
Wind Speed 4 mph (East)    
Max Wind Speed 13 mph    
Max Gust Speed 17 mph    
Visibility 10 miles    
Events Rain    
T = Trace of Precipitation, MM = Missing Value Source: NWS Daily Summary

Daily Weather History Graph

Daily Weather History Graph

Search for Another Location

Airport or City:

Astronomy

Dec. 31, 2012 Rise Set
Actual Time 7:44 AM PST 4:56 PM PST
Civil Twilight 7:12 AM PST 5:27 PM PST
Nautical Twilight 6:37 AM PST 6:02 PM PST
Astronomical Twilight 6:04 AM PST 6:36 PM PST
Moon 8:36 PM PST (12/31) 9:25 AM PST (12/31)
Length of Visible Light 10h 15m
Length of Day
9h 12m
Waning Gibbous, 89% of the Moon is Illuminated
Dec 31
Waning Gibbous
Jan 4
Last Quarter
Jan 11
New
Jan 18
First Quarter
Jan 26
Full

Hourly Weather History & Observations

Time (PST) Temp. Windchill Dew Point Humidity Pressure Visibility Wind Dir Wind Speed Gust Speed Precip Events Conditions
12:56 AM 37.9 °F 33.5 °F 30.9 °F 76% 30.27 in 10.0 mi East 5.8 mph - N/A   Clear
1:56 AM 37.0 °F 32.4 °F 30.9 °F 79% 30.25 in 10.0 mi East 5.8 mph - N/A   Clear
2:56 AM 37.0 °F 33.3 °F 30.0 °F 76% 30.26 in 10.0 mi East 4.6 mph - N/A   Clear
3:56 AM 37.9 °F 33.5 °F 30.0 °F 73% 30.26 in 10.0 mi East 5.8 mph - N/A   Clear
4:56 AM 37.0 °F 32.4 °F 30.0 °F 76% 30.26 in 10.0 mi ENE 5.8 mph - N/A   Clear
5:56 AM 37.9 °F 32.1 °F 30.0 °F 73% 30.26 in 10.0 mi East 8.1 mph - N/A   Clear
6:56 AM 37.9 °F 34.4 °F 30.0 °F 73% 30.28 in 10.0 mi East 4.6 mph - N/A   Clear
7:56 AM 39.9 °F 35.1 °F 30.0 °F 68% 30.22 in 10.0 mi East 6.9 mph - N/A   Scattered Clouds
8:56 AM 41.0 °F 39.0 °F 30.9 °F 67% 30.28 in 10.0 mi ESE 3.5 mph - N/A   Mostly Cloudy
9:56 AM 42.1 °F - 34.0 °F 73% 30.31 in 10.0 mi Calm Calm - N/A   Overcast
10:56 AM 44.1 °F 42.5 °F 33.1 °F 65% 30.32 in 10.0 mi ENE 3.5 mph - N/A   Overcast
11:56 AM 46.0 °F 43.9 °F 34.0 °F 63% 30.30 in 10.0 mi ENE 4.6 mph - N/A   Overcast
12:56 PM 50.0 °F - 35.1 °F 57% 30.27 in 10.0 mi ENE 3.5 mph - N/A   Overcast
1:56 PM 50.0 °F - 32.0 °F 50% 30.26 in 10.0 mi Calm Calm - N/A   Overcast
3:56 PM 48.0 °F - 35.1 °F 61% 30.27 in 10.0 mi SE 4.6 mph - N/A   Overcast
5:56 PM 45.0 °F - 36.0 °F 71% 30.29 in 10.0 mi Calm Calm - N/A   Overcast
6:56 PM 43.0 °F 41.3 °F 36.0 °F 76% 30.27 in 10.0 mi East 3.5 mph - 0.00 in Rain Light Rain
7:56 PM 44.1 °F 40.8 °F 39.0 °F 82% 30.29 in 10.0 mi NE 5.8 mph - 0.00 in   Overcast
8:56 PM 44.1 °F 42.5 °F 39.0 °F 82% 30.29 in 10.0 mi ENE 3.5 mph - N/A   Overcast
10:56 PM 41.0 °F 38.0 °F 37.0 °F 86% 30.30 in 10.0 mi East 4.6 mph - N/A   Clear
11:56 PM 39.9 °F 36.7 °F 36.0 °F 86% 30.30 in 10.0 mi ENE 4.6 mph - N/A   Clear